Location: Yamada Observatory
(36.7980°N, 119.2990°W)
Time: 16:29:46
(UTC-08:00)

OTV 5 (USA 277) - Visible Passes

Search period start: 21 January 2018 00:00
Search period end: 31 January 2018 00:00
Orbit: 404 x 417 km, 43.0° (Epoch: 07 September)

Date Brightness Start Highest point End Pass type
(mag) Time Alt. Az. Time Alt. Az. Time Alt. Az.
21 Jan ? 18:02:07 10° S 18:04:30 18° SE 18:06:10 13° ESE visible
21 Jan ? 19:38:10 10° WSW 19:38:56 16° WSW 19:38:56 16° WSW visible
22 Jan ? 18:47:07 10° WSW 18:50:28 74° SSE 18:50:30 73° SE visible
23 Jan ? 17:56:13 10° SW 17:59:26 46° SSE 18:02:01 15° ENE visible
23 Jan ? 19:33:37 10° W 19:34:47 19° WNW 19:34:47 19° WNW visible
24 Jan ? 18:42:22 10° W 18:45:40 51° NNW 18:46:14 45° NNE visible
25 Jan ? 17:51:12 10° WSW 17:54:34 74° NNW 17:57:40 12° ENE visible
25 Jan ? 19:29:13 10° WNW 19:30:25 18° NW 19:30:25 18° NW visible
26 Jan ? 18:37:56 10° WNW 18:41:00 32° N 18:41:49 28° NNE visible
27 Jan ? 17:46:39 10° W 17:49:50 39° NNW 17:53:02 10° NE visible
27 Jan ? 19:24:43 10° WNW 19:25:57 18° NW 19:25:57 18° NW visible
28 Jan ? 18:33:30 10° WNW 18:36:27 27° N 18:37:20 24° NNE visible
29 Jan ? 17:42:15 10° WNW 17:45:14 28° N 17:48:13 10° NE visible
29 Jan ? 19:20:00 10° NW 19:21:29 21° NW 19:21:29 21° NW visible
30 Jan ? 18:28:53 10° NW 18:31:54 29° N 18:32:55 24° NE visible
